User: anonymous   Login
Location: Fort Wayne
(41.1310°N, 85.1290°W)
Time: 16:37:07
(UTC-05:00)
Language:

Cosmos 2056 Rocket - Orbit

View from above orbital plane
View from above orbital plane
View from above satellite
View from above satellite

Ground track
Ground track

The orbit data is extracted from the following two-line orbital elements,

1 20433U 90004B   14332.14415829  .00000333  00000-0  12308-3 0  8762
2 20433 074.0372 266.9488 0042377 263.8651 194.9063 14.35723590301425
Epoch (UTC): 28 November 2014 03:27:35
Eccentricity: 0.0042377
inclination: 74.0372°
perigee height: 742 km
apogee height: 803 km
right ascension of ascending node: 266.9488°
argument of perigee: 263.8651°
revolutions per day: 14.35723590
mean anomaly at epoch: 194.9063°
orbit number at epoch: 30142

The dashed part of the orbit path shows where the satellite is in the earth's shadow,  

DLR